Weather in Mamykovo

Russia / Republic of Tatarstan     54°38′23″N   50°36′17″E
temp.,
°C
wind,
m/s
gust,
m/s
humid.,
%
clouds,
%
prec.,
mm/h
press.,
hPa
HPBL,
m
10 may, mon
mon1000:00+15sse3671100 0.2 1014118
03:00+14se487999 0.6 1015142
06:00+15se31072100 0.1 1017221
09:00+20se4851100 0.1 1018516
12:00+24se563874 0.0 10191986
15:00+24ese453870 0.0 10192364
18:00+21ene2254100 0.0 101921
21:00+17ene346293 0.0 102057
11 may, tue
tue1100:00+15e346687 0.0 102147
03:00+14e226796 0.0 102216
06:00+17e2464100 0.0 1023110
09:00+21se3447100 0.0 1025578
12:00+24e443379 0.0 10252271
15:00+24ne4337100 0.0 10252305
18:00+20ne2259100 0.0 102637
21:00+18se2261100 0.0 102732
12 may, wed
wed1200:00+17ssw116071 0.0 102711
03:00+14ese117085 0.0 102711
06:00+16e2570100 0.0 1028156
09:00+21ese575067 0.0 1028713
12:00+23se574198 0.0 10272232
15:00+23se4640100 0.0 10272169
18:00+19sse3652100 0.0 1027133
21:00+16se225599 0.0 102724
13 may, thu
thu1300:00+14ese2259100 0.0 102822
03:00+13e346098 0.0 102766
06:00+15ese396376 0.0 1028257
09:00+21se584412 0.0 1027846
12:00+24se56377 0.0 10261320
15:00+25sse463865 0.0 10251714
18:00+22se3555100 0.0 1025121
21:00+18ese485997 0.0 1025131
14 may, fri
fri1400:00+16se3563100 0.0 102570
03:00+16se355690 0.0 102584
06:00+17sse386245 0.0 1025244
09:00+23sse584394 0.0 1024621
12:00+26sse57335 0.0 10241453
15:00+27s5735100 0.0 10231395
18:00+22sse384999 0.0 1022166
21:00+18s365497 0.0 102279